This is the latest recevied weather packets stored in our database for station/object NN5DX-13. If no packets are shown the sender has not sent any weather packets the latest 10 day(s).
| Time | Temp. | Humidity | Pressure | Rain* | Wind** | Luminosity | Snow |
|---|---|---|---|---|---|---|---|
| 1777576816 | 23.89° C | 56% | 1012 hPa | 0 mm | - | - | - |
| 1777576516 | 23.89° C | 57% | 1011.9 hPa | 0 mm | - | - | - |
| 1777576216 | 24.44° C | 54% | 1012.3 hPa | 0 mm | - | - | - |
| 1777575916 | 24.44° C | 55% | 1012.2 hPa | 0 mm | - | - | - |
| 1777575617 | 24.44° C | 56% | 1012.2 hPa | 0 mm | - | - | - |
| 1777575316 | 23.89° C | 57% | 1012.2 hPa | 0 mm | - | - | - |
| 1777575016 | 23.89° C | 56% | 1012.3 hPa | 0 mm | - | - | - |
| 1777574717 | 23.89° C | 57% | 1012.2 hPa | 0 mm | - | - | - |
| 1777574416 | 23.89° C | 56% | 1012.3 hPa | 0 mm | - | - | - |
| 1777574116 | 24.44° C | 56% | 1012.3 hPa | 0 mm | - | - | - |
| 1777573816 | 24.44° C | 55% | 1012.5 hPa | 0 mm | - | - | - |
| 1777573517 | 24.44° C | 56% | 1012.4 hPa | 0 mm | - | - | - |
| 1777573216 | 24.44° C | 56% | 1012.5 hPa | 0 mm | - | - | - |
| 1777572916 | 24.44° C | 57% | 1012.5 hPa | 0 mm | - | - | - |
| 1777572617 | 23.89° C | 59% | 1012.6 hPa | 0 mm | - | - | - |
| 1777572316 | 23.89° C | 57% | 1012.5 hPa | 0 mm | - | - | - |
| 1777572016 | 23.89° C | 57% | 1012.5 hPa | 0 mm | - | - | - |
| 1777571716 | 24.44° C | 58% | 1012.6 hPa | 0 mm | - | - | - |
| 1777571416 | 24.44° C | 59% | 1012.7 hPa | 0 mm | - | - | - |
| 1777571116 | 23.89° C | 60% | 1012.7 hPa | 0 mm | - | - | - |
| 1777570816 | 23.89° C | 61% | 1012.5 hPa | 0 mm | - | - | - |
| 1777570516 | 23.33° C | 60% | 1012.1 hPa | 0 mm | - | - | - |
| 1777570216 | 23.89° C | 61% | 1012.2 hPa | 0 mm | - | - | - |
| 1777569916 | 23.33° C | 62% | 1012.1 hPa | 0 mm | - | - | - |
| 1777569616 | 23.33° C | 63% | 1012.2 hPa | 0 mm | - | - | - |
* Rain latest hour (hover to see other rain measurements)
** Current wind speed in m/s (hover to see current wind gust speed)